Location: Belfast
(54.5830°N, 5.9330°W)
Time: 21:28:41
(UTC+01:00)

ISS - Visible Passes

Search period start: 25 September 2017 00:00
Search period end: 05 October 2017 00:00
Orbit: 401 x 407 km, 51.6° (Epoch: 26 September)

Date Brightness Start Highest point End Pass type
(mag) Time Alt. Az. Time Alt. Az. Time Alt. Az.
26 Sep -1.4 21:02:07 10° S 21:02:32 12° S 21:02:32 12° S visible
27 Sep -1.6 20:11:03 10° SSE 20:12:12 11° SE 20:12:41 11° SE visible
27 Sep -1.1 21:44:58 10° SW 21:45:22 12° SW 21:45:22 12° SW visible
28 Sep -2.5 20:52:58 10° SSW 20:55:20 25° SSE 20:55:20 25° SSE visible
29 Sep -2.1 20:01:11 10° SSW 20:03:34 19° SSE 20:05:12 14° ESE visible
29 Sep -1.9 21:36:23 10° WSW 21:37:51 23° SW 21:37:51 23° SW visible
30 Sep -3.1 20:44:11 10° SW 20:47:14 36° SSE 20:47:36 35° SE visible
30 Sep -0.6 22:20:13 10° W 22:20:15 10° W 22:20:15 10° W visible
01 Oct -2.6 19:52:05 10° SW 19:54:58 28° SSE 19:57:16 13° ESE visible
01 Oct -2.4 21:27:53 10° WSW 21:29:55 32° SW 21:29:55 32° SW visible
02 Oct -3.4 20:35:33 10° WSW 20:38:43 46° S 20:39:31 37° SE visible
02 Oct -0.7 22:11:47 10° W 22:12:09 13° W 22:12:09 13° W visible
03 Oct -3.0 19:43:17 10° SW 19:46:22 39° SSE 19:49:05 13° E visible
03 Oct -2.7 21:19:23 10° W 21:21:43 37° SW 21:21:43 37° SW visible
04 Oct -3.4 20:27:00 10° WSW 20:30:11 50° S 20:31:15 34° SE visible
04 Oct -0.8 22:03:20 10° W 22:03:53 14° W 22:03:53 14° W visible
